Location: Bremen
(53.0793°N, 8.8017°E)
Time: 23:09:13
(UTC+02:00)

Altair - Pass Details

Date: 17 April 2024
Orbit: 1501 x 1682 km, 47.2° (Epoch: 19 May)

Event Time Altitude Azimuth Distance (km) Brightness Sun altitude
Rises 01:15:07 0° 273° (W) 4,849 10.2 -26.3°
Reaches altitude 10° 01:18:21 10° 269° (W) 3,838 9.6 -26.3°
Maximum altitude 01:27:45 57° 195° (SSW) 1,801 7.4 -26.3°
Drops below altitude 10° 01:36:49 10° 120° (ESE) 3,698 9.2 -26.3°
Sets 01:39:52 0° 116° (ESE) 4,662 9.8 -26.3°
